Location: DAV
(33.5613°N, 82.7640°W)
Time: 20:14:22
(UTC-05:00)

N. Korean satellite - Visible Passes

Search period start: 23 January 2018 00:00
Search period end: 02 February 2018 00:00
Orbit: 458 x 515 km, 97.2° (Epoch: 23 January)

Date Brightness Start Highest point End Pass type
(mag) Time Alt. Az. Time Alt. Az. Time Alt. Az.
23 Jan 9.6 19:19:55 10° SW 19:22:30 19° W 19:25:04 10° NW visible
24 Jan 8.0 06:49:57 10° NNE 06:53:14 41° E 06:56:32 10° S visible
24 Jan 8.1 18:55:24 10° S 18:58:46 39° W 19:02:07 10° NNW visible
25 Jan 9.6 06:26:57 10° NE 06:29:30 19° E 06:32:02 10° SE visible
25 Jan 6.5 18:31:31 10° SSE 18:35:06 88° E 18:38:38 10° N visible
27 Jan 9.6 19:18:42 10° SW 19:21:17 19° W 19:23:51 10° NW visible
28 Jan 8.1 06:48:42 10° NNE 06:52:00 40° E 06:55:19 10° S visible
28 Jan 8.0 18:54:11 10° S 18:57:33 40° W 19:00:52 10° NNW visible
29 Jan 9.7 06:25:43 10° NE 06:28:15 19° E 06:30:48 10° SE visible
29 Jan 6.5 18:30:20 10° SSE 18:33:51 85° E 18:37:21 10° N visible
31 Jan 9.5 19:17:26 10° SW 19:20:01 19° W 19:22:35 10° NW visible
01 Feb 8.2 06:47:25 10° NNE 06:50:44 39° E 06:54:04 10° S visible
01 Feb 8.0 18:52:56 10° S 18:56:16 41° W 18:59:35 10° NNW visible
